Location: Bacea
(45.9500°N, 22.6667°E)
Time: 04:24:33
(UTC+00:00)

Cosmos 2263 Rocket - Pass Details

Date: 31 May 2022
Orbit: 825 x 847 km, 71.0° (Epoch: 04 July)

Event Time Altitude Azimuth Distance (km) Brightness Sun altitude
Rises 20:16:06 0° 319° (NW) 3,376 7.1 -15.8°
Reaches altitude 10° 20:19:17 10° 301° (WNW) 2,435 5.6 -16.1°
Maximum altitude 20:22:52 18° 261° (W) 1,936 4.3 -16.4°
Drops below altitude 10° 20:26:27 10° 220° (SW) 2,420 4.4 -16.7°
Enters shadow 20:27:59 - 210° (SSW) 2,836 4.6 -16.9°
